Time,TemperatureF,DewpointF,PressureIn,WindDirection,WindDirectionDegrees,WindSpeedMPH,WindSpeedGustMPH,Humidity,HourlyPrecipIn,Conditions,Clouds,dailyrainin,SolarRadiationWatts/m^2,SoftwareType,DateUTC
2013-03-18 00:02:00,40.0,39.0,-100.00,ENE,58,4.0,9.0,97,0.03,,,1.37,0.000000,,2013-03-18 05:02:00,
2013-03-18 00:32:00,39.0,38.0,-100.00,NNE,25,7.0,12.0,96,0.03,,,1.36,0.000000,,2013-03-18 05:32:00,
2013-03-18 00:43:00,39.0,38.0,-100.00,NNE,25,7.0,12.0,96,0.03,,,1.36,0.000000,,2013-03-18 05:43:00,
2013-03-18 00:52:00,39.0,38.0,-100.00,NNE,25,7.0,12.0,96,0.03,,,1.36,0.000000,,2013-03-18 05:52:00,
2013-03-18 01:02:00,39.0,38.0,-100.00,NNE,25,7.0,12.0,96,0.03,,,1.36,0.000000,,2013-03-18 06:02:00,
2013-03-18 01:32:00,38.0,37.0,-100.00,North,9,11.0,18.0,96,0.09,,,1.44,0.000000,,2013-03-18 06:32:00,
2013-03-18 01:42:00,38.0,37.0,-100.00,North,9,11.0,18.0,96,0.09,,,1.44,0.000000,,2013-03-18 06:42:00,
2013-03-18 01:52:00,38.0,37.0,-100.00,North,9,11.0,18.0,96,0.09,,,1.44,0.000000,,2013-03-18 06:52:00,
2013-03-18 02:02:00,38.0,37.0,-100.00,North,9,11.0,18.0,96,0.09,,,1.44,0.000000,,2013-03-18 07:02:00,
2013-03-18 02:33:00,38.0,37.0,-100.00,NE,50,8.0,21.0,96,0.33,,,1.77,0.000000,,2013-03-18 07:33:00,
2013-03-18 02:43:00,38.0,37.0,-100.00,NE,50,8.0,21.0,96,0.33,,,1.77,0.000000,,2013-03-18 07:43:00,
2013-03-18 02:53:00,38.0,37.0,-100.00,NE,50,8.0,21.0,96,0.33,,,1.77,0.000000,,2013-03-18 07:53:00,
2013-03-18 03:02:00,38.0,37.0,-100.00,NE,50,8.0,21.0,96,0.33,,,1.77,0.000000,,2013-03-18 08:02:00,
2013-03-18 03:32:00,40.0,39.0,-100.00,SE,124,4.0,18.0,96,0.26,,,-99.99,0.000000,,2013-03-18 08:32:00,
2013-03-18 03:43:00,40.0,39.0,-100.00,SE,124,4.0,18.0,96,0.26,,,-99.99,0.000000,,2013-03-18 08:43:00,
2013-03-18 03:53:00,40.0,39.0,-100.00,SE,124,4.0,18.0,96,0.26,,,-99.99,0.000000,,2013-03-18 08:53:00,
2013-03-18 04:02:00,40.0,39.0,-100.00,SE,124,4.0,18.0,96,0.26,,,-99.99,0.000000,,2013-03-18 09:02:00,
2013-03-18 04:33:00,41.0,40.0,-100.00,SE,134,2.0,9.0,98,0.17,,,2.05,0.000000,,2013-03-18 09:33:00,
2013-03-18 04:43:00,41.0,40.0,-100.00,SE,134,2.0,9.0,98,0.17,,,2.05,0.000000,,2013-03-18 09:43:00,
2013-03-18 04:53:00,41.0,40.0,-100.00,SE,134,2.0,9.0,98,0.17,,,2.05,0.000000,,2013-03-18 09:53:00,
2013-03-18 05:03:00,41.0,40.0,-100.00,SE,134,2.0,9.0,98,0.17,,,2.05,0.000000,,2013-03-18 10:03:00,
2013-03-18 05:33:00,43.0,42.0,-100.00,SE,130,4.0,7.0,98,0.01,,,2.03,0.000000,,2013-03-18 10:33:00,
2013-03-18 05:42:00,43.0,42.0,-100.00,SE,130,4.0,7.0,98,0.01,,,2.03,0.000000,,2013-03-18 10:42:00,
2013-03-18 05:53:00,43.0,42.0,-100.00,SE,130,4.0,7.0,98,0.01,,,2.03,0.000000,,2013-03-18 10:53:00,
2013-03-18 06:03:00,43.0,42.0,-100.00,SE,130,4.0,7.0,98,0.01,,,2.03,0.000000,,2013-03-18 11:03:00,
2013-03-18 06:32:00,43.0,42.0,-100.00,SSW,203,2.0,6.0,98,0.00,,,2.03,0.000000,,2013-03-18 11:32:00,
2013-03-18 06:43:00,43.0,42.0,-100.00,SSW,203,2.0,6.0,98,0.00,,,2.03,0.000000,,2013-03-18 11:43:00,
2013-03-18 06:52:00,43.0,42.0,-100.00,SSW,203,2.0,6.0,98,0.00,,,2.03,0.000000,,2013-03-18 11:52:00,
2013-03-18 07:02:00,43.0,42.0,-100.00,SSW,203,2.0,6.0,98,0.00,,,2.03,0.000000,,2013-03-18 12:02:00,
2013-03-18 07:33:00,42.0,41.0,-100.00,WNW,295,6.0,9.0,98,0.00,,,2.01,0.000000,,2013-03-18 12:33:00,
2013-03-18 07:43:00,42.0,41.0,-100.00,WNW,295,6.0,9.0,98,0.00,,,2.01,0.000000,,2013-03-18 12:43:00,
2013-03-18 07:52:00,42.0,41.0,-100.00,WNW,295,6.0,9.0,98,0.00,,,2.01,0.000000,,2013-03-18 12:52:00,
2013-03-18 08:02:00,42.0,41.0,-100.00,WNW,295,6.0,9.0,98,0.00,,,2.01,0.000000,,2013-03-18 13:02:00,
2013-03-18 08:33:00,43.0,43.0,-100.00,WNW,283,6.0,9.0,99,0.00,,,2.00,7.000000,,2013-03-18 13:33:00,
2013-03-18 08:42:00,43.0,43.0,-100.00,WNW,283,6.0,9.0,99,0.00,,,2.00,7.000000,,2013-03-18 13:42:00,
2013-03-18 08:52:00,43.0,43.0,-100.00,WNW,283,6.0,9.0,99,0.00,,,2.00,7.000000,,2013-03-18 13:52:00,
2013-03-18 09:02:00,43.0,43.0,-100.00,WNW,283,6.0,9.0,99,0.00,,,2.00,7.000000,,2013-03-18 14:02:00,
2013-03-18 09:32:00,43.0,43.0,-100.00,WNW,284,5.0,10.0,99,0.00,,,1.91,35.000000,,2013-03-18 14:32:00,
2013-03-18 09:42:00,43.0,43.0,-100.00,WNW,284,5.0,10.0,99,0.00,,,1.91,35.000000,,2013-03-18 14:42:00,
2013-03-18 09:52:00,43.0,43.0,-100.00,WNW,284,5.0,10.0,99,0.00,,,1.91,35.000000,,2013-03-18 14:52:00,
2013-03-18 10:02:00,43.0,43.0,-100.00,WNW,284,5.0,10.0,99,0.00,,,1.91,35.000000,,2013-03-18 15:02:00,
2013-03-18 10:33:00,45.0,44.0,-100.00,West,264,6.0,11.0,96,0.00,,,1.89,109.000000,,2013-03-18 15:33:00,
2013-03-18 10:43:00,45.0,44.0,-100.00,West,264,6.0,11.0,96,0.00,,,1.89,109.000000,,2013-03-18 15:43:00,
2013-03-18 10:52:00,45.0,44.0,-100.00,West,264,6.0,11.0,96,0.00,,,1.89,109.000000,,2013-03-18 15:52:00,
2013-03-18 11:03:00,45.0,44.0,-100.00,West,264,6.0,11.0,96,0.00,,,1.89,109.000000,,2013-03-18 16:03:00,
2013-03-18 11:33:00,47.0,43.0,-100.00,WNW,287,8.0,14.0,86,0.00,,,1.80,215.000000,,2013-03-18 16:33:00,
2013-03-18 11:42:00,47.0,43.0,-100.00,WNW,287,8.0,14.0,86,0.00,,,1.80,215.000000,,2013-03-18 16:42:00,
2013-03-18 11:53:00,47.0,43.0,-100.00,WNW,287,8.0,14.0,86,0.00,,,1.80,215.000000,,2013-03-18 16:53:00,
2013-03-18 12:02:00,47.0,43.0,-100.00,WNW,287,8.0,14.0,86,0.00,,,1.80,215.000000,,2013-03-18 17:02:00,
2013-03-18 12:33:00,48.0,43.0,-100.00,West,262,10.0,19.0,83,0.00,,,1.51,278.000000,,2013-03-18 17:33:00,
2013-03-18 12:43:00,48.0,43.0,-100.00,West,262,10.0,19.0,83,0.00,,,1.51,278.000000,,2013-03-18 17:43:00,
2013-03-18 12:52:00,48.0,43.0,-100.00,West,262,10.0,19.0,83,0.00,,,1.51,278.000000,,2013-03-18 17:52:00,
2013-03-18 13:02:00,48.0,43.0,-100.00,West,262,10.0,19.0,83,0.00,,,1.51,278.000000,,2013-03-18 18:02:00,
2013-03-18 13:32:00,48.0,42.0,-100.00,WSW,249,8.0,16.0,80,0.00,,,1.47,295.000000,,2013-03-18 18:32:00,
2013-03-18 13:42:00,48.0,42.0,-100.00,WSW,249,8.0,16.0,80,0.00,,,1.47,295.000000,,2013-03-18 18:42:00,
2013-03-18 13:52:00,48.0,42.0,-100.00,WSW,249,8.0,16.0,80,0.00,,,1.47,295.000000,,2013-03-18 18:52:00,
2013-03-18 14:02:00,48.0,42.0,-100.00,WSW,249,8.0,16.0,80,0.00,,,1.47,295.000000,,2013-03-18 19:02:00,
2013-03-18 14:33:00,49.0,42.0,-100.00,WNW,290,8.0,17.0,77,0.00,,,1.43,201.000000,,2013-03-18 19:33:00,
2013-03-18 14:42:00,49.0,42.0,-100.00,WNW,290,8.0,17.0,77,0.00,,,1.43,201.000000,,2013-03-18 19:42:00,
2013-03-18 14:52:00,49.0,42.0,-100.00,WNW,290,8.0,17.0,77,0.00,,,1.43,201.000000,,2013-03-18 19:52:00,
2013-03-18 15:02:00,49.0,42.0,-100.00,WNW,290,8.0,17.0,77,0.00,,,1.43,201.000000,,2013-03-18 20:02:00,
2013-03-18 15:33:00,48.0,40.0,-100.00,NW,314,13.0,16.0,75,0.00,,,1.39,191.000000,,2013-03-18 20:33:00,
2013-03-18 15:43:00,48.0,40.0,-100.00,NW,314,13.0,16.0,75,0.00,,,1.39,191.000000,,2013-03-18 20:43:00,
2013-03-18 15:52:00,48.0,40.0,-100.00,NW,314,13.0,16.0,75,0.00,,,1.39,191.000000,,2013-03-18 20:52:00,
2013-03-18 16:02:00,48.0,40.0,-100.00,NW,314,13.0,16.0,75,0.00,,,1.39,191.000000,,2013-03-18 21:02:00,
2013-03-18 16:33:00,47.0,40.0,-100.00,NW,312,8.0,21.0,76,0.00,,,1.33,133.000000,,2013-03-18 21:33:00,
2013-03-18 16:43:00,47.0,40.0,-100.00,NW,312,8.0,21.0,76,0.00,,,1.33,133.000000,,2013-03-18 21:43:00,
2013-03-18 16:53:00,47.0,40.0,-100.00,NW,312,8.0,21.0,76,0.00,,,1.33,133.000000,,2013-03-18 21:53:00,
2013-03-18 17:03:00,47.0,40.0,-100.00,NW,312,8.0,21.0,76,0.00,,,1.33,133.000000,,2013-03-18 22:03:00,
2013-03-18 17:33:00,48.0,39.0,-100.00,WNW,301,10.0,15.0,70,0.00,,,1.23,287.000000,,2013-03-18 22:33:00,
2013-03-18 17:42:00,48.0,39.0,-100.00,WNW,301,10.0,15.0,70,0.00,,,1.23,287.000000,,2013-03-18 22:42:00,
2013-03-18 17:53:00,48.0,39.0,-100.00,WNW,301,10.0,15.0,70,0.00,,,1.23,287.000000,,2013-03-18 22:53:00,
2013-03-18 18:03:00,48.0,39.0,-100.00,WNW,301,10.0,15.0,70,0.00,,,1.23,287.000000,,2013-03-18 23:03:00,
2013-03-18 18:33:00,47.0,38.0,-100.00,NNW,344,7.0,15.0,71,0.00,,,1.17,180.000000,,2013-03-18 23:33:00,
2013-03-18 18:43:00,47.0,38.0,-100.00,NNW,344,7.0,15.0,71,0.00,,,1.17,180.000000,,2013-03-18 23:43:00,
2013-03-18 18:53:00,47.0,38.0,-100.00,NNW,344,7.0,15.0,71,0.00,,,1.17,180.000000,,2013-03-18 23:53:00,
2013-03-18 19:02:00,47.0,38.0,-100.00,NNW,344,7.0,15.0,71,0.00,,,1.17,180.000000,,2013-03-19 00:02:00,
2013-03-18 20:33:00,43.0,37.0,-100.00,WNW,299,2.0,7.0,78,-99.99,,,1.01,0.000000,,2013-03-19 01:33:00,
2013-03-18 20:43:00,43.0,37.0,-100.00,WNW,299,2.0,7.0,78,-99.99,,,1.01,0.000000,,2013-03-19 01:43:00,
2013-03-18 20:52:00,43.0,37.0,-100.00,WNW,299,2.0,7.0,78,-99.99,,,1.01,0.000000,,2013-03-19 01:52:00,
2013-03-18 21:02:00,43.0,37.0,-100.00,WNW,299,2.0,7.0,78,-99.99,,,1.01,0.000000,,2013-03-19 02:02:00,
2013-03-18 21:33:00,39.0,37.0,-100.00,SSE,162,2.0,3.0,91,0.00,,,0.94,0.000000,,2013-03-19 02:33:00,
2013-03-18 21:43:00,39.0,37.0,-100.00,SSE,162,2.0,3.0,91,0.00,,,0.94,0.000000,,2013-03-19 02:43:00,
2013-03-18 21:53:00,39.0,37.0,-100.00,SSE,162,2.0,3.0,91,0.00,,,0.94,0.000000,,2013-03-19 02:53:00,
2013-03-18 22:02:00,39.0,37.0,-100.00,SSE,162,2.0,3.0,91,0.00,,,0.94,0.000000,,2013-03-19 03:02:00,
2013-03-18 22:33:00,37.0,36.0,-100.00,South,171,2.0,3.0,96,0.00,,,0.92,0.000000,,2013-03-19 03:33:00,
2013-03-18 22:43:00,37.0,36.0,-100.00,South,171,2.0,3.0,96,0.00,,,0.92,0.000000,,2013-03-19 03:43:00,
2013-03-18 22:54:00,37.0,36.0,-100.00,South,171,2.0,3.0,96,0.00,,,0.92,0.000000,,2013-03-19 03:54:00,
2013-03-18 23:03:00,37.0,36.0,-100.00,South,171,2.0,3.0,96,0.00,,,0.92,0.000000,,2013-03-19 04:03:00,
2013-03-18 23:34:00,35.0,34.0,-100.00,WSW,239,1.0,3.0,97,0.00,,,0.89,0.000000,,2013-03-19 04:34:00,
2013-03-18 23:43:00,35.0,34.0,-100.00,WSW,239,1.0,3.0,97,0.00,,,0.89,0.000000,,2013-03-19 04:43:00,
2013-03-18 23:53:00,35.0,34.0,-100.00,WSW,239,1.0,3.0,97,0.00,,,0.89,0.000000,,2013-03-19 04:53:00,